TimeCST,TemperatureF,Dew PointF,Humidity,Sea Level PressureIn,VisibilityMPH,Wind Direction,Wind SpeedMPH,Gust SpeedMPH,PrecipitationIn,Events,Conditions,WindDirDegrees,DateUTC
12:15 AM,10.0,6.6,86,29.88,4.0,Calm,Calm,-,N/A,Snow,Light Snow,0,2014-02-16 06:15:00
12:30 AM,9.5,5.9,85,29.88,2.5,Calm,Calm,-,N/A,Snow,Light Snow,0,2014-02-16 06:30:00
12:55 AM,9.3,5.7,85,29.89,1.8,Calm,Calm,-,N/A,Snow,Light Snow,0,2014-02-16 06:55:00
1:15 AM,9.5,6.1,86,29.90,2.5,Calm,Calm,-,N/A,Snow,Light Snow,0,2014-02-16 07:15:00
1:35 AM,10.4,6.8,85,29.91,3.0,Calm,Calm,-,N/A,Snow,Light Snow,0,2014-02-16 07:35:00
1:55 AM,11.8,8.4,86,29.91,3.0,Calm,Calm,-,N/A,Snow,Light Snow,0,2014-02-16 07:55:00
2:15 AM,11.7,7.9,85,29.92,5.0,North,5.8,-,N/A,Snow,Light Snow,350,2014-02-16 08:15:00
2:35 AM,10.6,6.8,85,29.93,5.0,North,10.4,-,N/A,Snow,Light Snow,350,2014-02-16 08:35:00
2:55 AM,9.3,5.4,84,29.93,7.0,North,6.9,-,N/A,Snow,Light Snow,360,2014-02-16 08:55:00
3:15 AM,8.4,4.3,83,29.94,4.0,North,10.4,-,N/A,Snow,Light Snow,10,2014-02-16 09:15:00
3:35 AM,7.5,3.2,82,29.95,5.0,North,8.1,-,N/A,Snow,Light Snow,360,2014-02-16 09:35:00
3:55 AM,6.8,2.3,82,29.95,5.0,North,8.1,-,N/A,Snow,Light Snow,360,2014-02-16 09:55:00
4:15 AM,5.2,-0.0,79,29.96,7.0,North,6.9,-,N/A,Snow,Light Snow,10,2014-02-16 10:15:00
4:35 AM,4.1,-1.1,79,29.97,10.0,North,8.1,-,N/A,,Clear,10,2014-02-16 10:35:00
4:55 AM,3.2,-1.8,80,29.99,10.0,North,4.6,-,N/A,,Clear,10,2014-02-16 10:55:00
5:10 AM,2.1,-2.9,79,30.00,10.0,North,4.6,-,N/A,,Clear,10,2014-02-16 11:10:00
5:35 AM,1.2,-3.5,81,30.02,10.0,North,4.6,-,N/A,,Clear,10,2014-02-16 11:35:00
5:55 AM,0.3,-4.2,81,30.04,10.0,North,3.5,-,N/A,,Clear,360,2014-02-16 11:55:00
6:15 AM,-0.2,-4.5,82,30.05,10.0,North,4.6,-,N/A,,Clear,10,2014-02-16 12:15:00
6:35 AM,-0.4,-4.9,81,30.05,10.0,North,5.8,-,N/A,,Clear,10,2014-02-16 12:35:00
6:55 AM,-1.5,-5.8,82,30.06,10.0,North,3.5,-,N/A,,Clear,360,2014-02-16 12:55:00
7:15 AM,-2.4,-6.5,82,30.07,10.0,Calm,Calm,-,N/A,,Clear,0,2014-02-16 13:15:00
7:35 AM,-2.4,-6.7,82,30.09,10.0,Calm,Calm,-,N/A,,Clear,0,2014-02-16 13:35:00
7:55 AM,-0.6,-5.1,81,30.10,10.0,North,3.5,-,N/A,,Clear,360,2014-02-16 13:55:00
8:15 AM,0.7,-3.8,81,30.12,10.0,NNE,3.5,-,N/A,,Scattered Clouds,20,2014-02-16 14:15:00
8:35 AM,2.5,-2.2,81,30.11,10.0,NE,8.1,-,N/A,,Scattered Clouds,40,2014-02-16 14:35:00
8:55 AM,3.9,-1.5,78,30.11,10.0,NE,9.2,-,N/A,,Clear,40,2014-02-16 14:55:00
9:15 AM,5.4,-0.6,76,30.12,10.0,NE,6.9,-,N/A,,Clear,40,2014-02-16 15:15:00
9:35 AM,6.4,-0.4,74,30.12,10.0,NE,9.2,-,N/A,,Clear,40,2014-02-16 15:35:00
9:55 AM,7.7,0.3,72,30.13,10.0,NE,6.9,-,N/A,,Clear,50,2014-02-16 15:55:00
10:15 AM,8.8,1.0,71,30.13,10.0,NE,5.8,-,N/A,,Clear,40,2014-02-16 16:15:00
10:35 AM,10.4,1.2,66,30.14,10.0,ENE,4.6,-,N/A,,Scattered Clouds,60,2014-02-16 16:35:00
10:55 AM,11.1,1.6,66,30.15,10.0,NE,3.5,-,N/A,,Clear,40,2014-02-16 16:55:00
11:15 AM,12.2,1.8,63,30.15,10.0,Calm,Calm,-,N/A,,Clear,0,2014-02-16 17:15:00
11:35 AM,13.5,2.3,61,30.15,10.0,Calm,Calm,-,N/A,,Clear,0,2014-02-16 17:35:00
11:55 AM,13.5,1.8,60,30.15,10.0,Calm,Calm,-,N/A,,Clear,0,2014-02-16 17:55:00
12:15 PM,13.8,2.8,62,30.14,10.0,Calm,Calm,-,0.01,,Clear,0,2014-02-16 18:15:00
12:35 PM,14.0,2.7,61,30.14,10.0,Calm,Calm,-,0.01,,Clear,0,2014-02-16 18:35:00
12:55 PM,14.4,2.5,59,30.14,10.0,Calm,Calm,-,0.01,,Clear,0,2014-02-16 18:55:00
1:15 PM,14.9,2.8,59,30.14,10.0,Calm,Calm,-,0.01,,Clear,0,2014-02-16 19:15:00
1:35 PM,15.6,3.0,58,30.14,10.0,Calm,Calm,-,0.03,,Clear,0,2014-02-16 19:35:00
1:55 PM,16.5,3.2,56,30.13,10.0,Calm,Calm,-,0.05,,Clear,0,2014-02-16 19:55:00
2:15 PM,18.1,3.9,54,30.13,10.0,Calm,Calm,-,0.01,,Clear,0,2014-02-16 20:15:00
2:35 PM,16.7,3.2,55,30.13,10.0,Calm,Calm,-,0.03,,Clear,0,2014-02-16 20:35:00
2:55 PM,17.1,3.6,56,30.13,10.0,Calm,Calm,-,0.04,,Clear,0,2014-02-16 20:55:00
3:15 PM,17.8,4.1,55,30.13,10.0,Calm,Calm,-,N/A,,Clear,0,2014-02-16 21:15:00
3:35 PM,17.6,4.5,56,30.12,10.0,Calm,Calm,-,0.01,,Clear,0,2014-02-16 21:35:00
3:55 PM,18.9,4.1,53,30.12,10.0,ESE,3.5,-,0.01,,Clear,120,2014-02-16 21:55:00
4:15 PM,18.3,4.6,55,30.13,10.0,SE,4.6,-,N/A,,Clear,130,2014-02-16 22:15:00
4:35 PM,18.3,5.4,57,30.14,10.0,Calm,Calm,-,N/A,,Clear,0,2014-02-16 22:35:00
4:55 PM,16.2,5.9,64,30.15,10.0,Calm,Calm,-,N/A,,Clear,0,2014-02-16 22:55:00
5:15 PM,13.6,7.0,75,30.15,10.0,Calm,Calm,-,N/A,,Clear,0,2014-02-16 23:15:00
5:35 PM,11.7,5.9,78,30.15,10.0,Calm,Calm,-,N/A,,Clear,0,2014-02-16 23:35:00
5:55 PM,7.3,3.6,85,30.15,10.0,Calm,Calm,-,N/A,,Clear,0,2014-02-16 23:55:00
6:15 PM,7.0,3.4,85,30.15,10.0,ESE,3.5,-,N/A,,Clear,120,2014-02-17 00:15:00
6:35 PM,3.6,-0.4,84,30.14,10.0,Calm,Calm,-,N/A,,Clear,0,2014-02-17 00:35:00
6:55 PM,2.1,-2.4,81,30.15,10.0,Calm,Calm,-,N/A,,Clear,0,2014-02-17 00:55:00
7:15 PM,3.9,0.3,85,30.15,10.0,ESE,3.5,-,N/A,,Clear,120,2014-02-17 01:15:00
7:35 PM,6.6,3.2,86,30.14,10.0,ESE,5.8,-,N/A,,Clear,120,2014-02-17 01:35:00
7:55 PM,10.9,5.5,79,30.13,10.0,SE,5.8,-,N/A,,Clear,130,2014-02-17 01:55:00
8:15 PM,12.2,4.8,72,30.13,10.0,SE,6.9,-,N/A,,Clear,140,2014-02-17 02:15:00
8:35 PM,12.2,4.5,71,30.14,10.0,SE,6.9,-,N/A,,Clear,140,2014-02-17 02:35:00
8:55 PM,12.0,4.5,72,30.14,10.0,SSE,5.8,-,N/A,,Clear,160,2014-02-17 02:55:00
9:15 PM,11.3,4.1,73,30.13,10.0,SSE,5.8,-,N/A,,Clear,150,2014-02-17 03:15:00
9:35 PM,11.1,4.1,73,30.12,10.0,SSE,5.8,-,N/A,,Clear,150,2014-02-17 03:35:00
9:55 PM,10.2,3.9,76,30.13,10.0,South,4.6,-,N/A,,Clear,170,2014-02-17 03:55:00
10:15 PM,9.3,3.6,77,30.14,10.0,South,3.5,-,N/A,,Clear,170,2014-02-17 04:15:00
10:35 PM,8.8,3.6,79,30.14,10.0,South,4.6,-,N/A,,Clear,170,2014-02-17 04:35:00
10:55 PM,8.4,3.2,79,30.15,10.0,South,4.6,-,N/A,,Clear,170,2014-02-17 04:55:00
11:15 PM,8.1,3.0,80,30.14,10.0,SSE,5.8,-,N/A,,Clear,160,2014-02-17 05:15:00
11:35 PM,8.6,3.6,80,30.14,10.0,SSE,3.5,-,N/A,,Clear,150,2014-02-17 05:35:00
11:55 PM,8.6,3.7,81,30.13,10.0,SSE,6.9,-,N/A,,Clear,150,2014-02-17 05:55:00